User: anonymous   Login
Location: Caltech
(34.1382°N, 118.1253°W)
Time: 14:35:15
(UTC-08:00)
Language:

CZ-2C R/B - Orbit

View from above orbital plane
View from above orbital plane
View from above satellite
View from above satellite

Ground track
Ground track

The orbit data is extracted from the following two-line orbital elements,

1 28480U 04046B   16040.20228009  .00000113  00000-0  58924-4 0  9997
2 28480  98.1668 162.7429 0141122 242.3597 167.0476 14.25567390583858
Epoch (UTC): 09 February 2016 04:51:17
Eccentricity: 0.0141122
inclination: 98.1668°
perigee height: 705 km
apogee height: 908 km
right ascension of ascending node: 162.7429°
argument of perigee: 242.3597°
revolutions per day: 14.25567390
mean anomaly at epoch: 167.0476°
orbit number at epoch: 58385

The dashed part of the orbit path shows where the satellite is in the earth's shadow,  

DLR